Location: *
(45.9500°N, 9.0833°E)
Time: 23:30:14
(UTC+00:00)

Tiros 1 despin weight - Pass Details

Date: 01 July 2021
Orbit: 593 x 642 km, 48.2° (Epoch: 02 August)

Event Time Altitude Azimuth Distance (km) Brightness Sun altitude
Rises 22:48:47 0° 184° (S) 2,872 - -20.4°
Reaches altitude 10° 22:53:03 10° 145° (SE) 1,958 - -20.6°
Maximum altitude 22:53:59 11° 133° (SE) 1,918 - -20.6°
Drops below altitude 10° 22:54:55 10° 121° (ESE) 1,954 - -20.6°
Exits shadow 22:57:17 - 95° (E) 2,344 ? -20.7°
Sets 22:59:09 0° 82° (E) 2,850 ? -20.7°
